Overview Statistics Trail Chart Weather Telemetry Raw packets
 

This is the latest recevied weather packets stored in our database for station/object KD7AWQ. If no packets are shown the sender has not sent any weather packets the latest 10 day(s).

<< 100 101 102 103 104 105 106 >>
Time Temp. Humidity Pressure Rain* Wind** Luminosity Snow
1787697361 37.22° C 13% 1186.5 hPa 0 mm - 337 W/m² -
1787697057 37.78° C 13% 1186.7 hPa 0 mm - 266 W/m² -
1787696752 37.78° C 13% 1186.6 hPa 0 mm - 716 W/m² -
1787696448 37.78° C 13% 1186.6 hPa 0 mm - 753 W/m² -
1787696145 38.33° C 13% 1186.7 hPa 0 mm - 334 W/m² -
1787695842 38.33° C 13% 1187 hPa 0 mm - 709 W/m² -
1787695538 38.33° C 13% 1187 hPa 0 mm - 687 W/m² -
1787695234 37.78° C 13% 1186.9 hPa 0 mm - 790 W/m² -
1787694932 37.78° C 13% 1186.9 hPa 0 mm - 893 W/m² -
1787694628 38.33° C 13% 1187.3 hPa 0 mm - 804 W/m² -
1787694322 37.78° C 13% 1187.3 hPa 0 mm - 852 W/m² -
1787694018 38.33° C 13% 1187.3 hPa 0 mm - 392 W/m² -
1787693714 38.89° C 13% 1187.3 hPa 0 mm - 805 W/m² -
1787693410 38.33° C 13% 1187.7 hPa 0 mm - 1022 W/m² -
1787693105 38.33° C 13% 1187.8 hPa 0 mm - 979 W/m² -
1787692802 37.78° C 13% 1187.7 hPa 0 mm - 1051 W/m² -
1787692496 37.78° C 13% 1187.9 hPa 0 mm - 718 W/m² -
1787692190 37.78° C 14% 1187.9 hPa 0 mm - 597 W/m² -
1787691892 37.78° C 13% 1187.9 hPa 0 mm - 531 W/m² -
1787691589 37.78° C 14% 1187.8 hPa 0 mm - 740 W/m² -
1787691287 37.22° C 14% 1188.2 hPa 0 mm - 1006 W/m² -
1787690982 37.22° C 14% 1187.9 hPa 0 mm - 887 W/m² -
1787690682 37.22° C 14% 1188.1 hPa 0 mm - 646 W/m² -
1787690377 37.22° C 14% 1188.1 hPa 0 mm - 752 W/m² -
1787690074 37.78° C 14% 1188.2 hPa 0 mm - 444 W/m² -

* Rain latest hour (hover to see other rain measurements)
** Current wind speed in m/s (hover to see current wind gust speed)